Regional Weather Roundup
Issued by NWS Wakefield, VA

Home | Current Version | Previous Version | Text Only | Print | Product List | Glossary Off
Versions: 1 2 3 4 5 6 7 8 9 10 11 12 13 14 15 16 17 18 19 20 21 22 23 24 25 26 27 28 29 30 31 32 33 34 35 36 37 38 39 40 41 42 43 44 45 46 47 48 49 50

000
ASUS41 KAKQ 041110
RWRAKQ

REGIONAL WEATHER ROUNDUP
NATIONAL WEATHER SERVICE WAKEFIELD VA
600 AM EST WED MAR 04 2015

Note: "fair" indicates few or no clouds below 12,000 feet with no
significant weather and/or obstructions to visibility. * = Denotes
station may not report precipitation (e.g., rain,snow,etc.),
thunder or fog.

VAZ042-051-052>054-056-041200-
NORTHERN VIRGINIA

CITY           SKY/WX    TMP DP  RH WIND       PRES   REMARKS
WASH NATIONAL  CLOUDY    39  35  86 S8        29.87R
DULLES         CLOUDY    37  35  92 S9        29.87R
FORT BELVOIR   CLOUDY    39  37  93 VRB1      29.88R
QUANTICO       FOG       37  34  89 SW6       29.90R VSB 1/2
FREDERICKSBRG* CLOUDY    42  42 100 S6        29.89S FOG
STAFFORD*      DRIZZLE   39  32  75 CALM      29.92S
WARRENTON      CLOUDY    39  39 100 SW5       29.87R FOG
CULPEPER*      CLOUDY    39  39 100 CALM      29.88R FOG
MANASSAS*      CLOUDY    37  37 100 SW3       29.89R
LEESBURG*      CLOUDY    37  37 100 S3        29.87R
WINCHESTER     CLOUDY    43  37  81 SW6       29.83R
FRONT ROYAL*   CLOUDY    43  43 100 S6        29.83R
LURAY*         CLOUDY    46  46 100 S3        29.84R FOG
$$

VAZ048-049-060>072-079>083-041200-
CENTRAL AND SOUTH CENTRAL VIRGINIA

CITY           SKY/WX    TMP DP  RH WIND       PRES   REMARKS
RICHMOND       CLOUDY    51  48  89 SW10      29.90R
CHESTERFIELD*  CLOUDY    52  41  66 W13G21    29.91R
PETERSBURG*    CLOUDY    51  50  97 SW10      29.93R FOG
HANOVER        CLOUDY    49  47  93 SW8       29.90R
TAPPAHANNOCK*  CLOUDY    48  44  88 CALM      29.92R
QUINTON*       CLOUDY    47  46  99 SW5       29.90R
CHARLOTTSVILLE CLOUDY    40  37  89 S8        29.86S
GORDONSVILLE*  CLOUDY    37  36  94 CALM      29.87S FOG
ORANGE*        DRIZZLE   41  39  93 CALM      29.89R
LOUISA*        CLOUDY    43  39  87 NW5       29.90R
BUMPASS*       CLOUDY    42  40  92 CALM      29.90R
FARMVILLE*     CLOUDY    48  48 100 S10       29.88S FOG
CREWE*         CLOUDY    50  48  94 SW10G24   29.91R
FORT PICKETT*  CLOUDY    46  46  98 SW15      29.92R VSB 1
CHASE CITY*    CLOUDY    50  50 100 SW5       29.93S
CLARKSVILLE*   CLOUDY    46  46 100 SW13G18   29.94S
SOUTH HILL*    CLOUDY    49  49  99 SW14G23   29.99S
LAWRENCEVILLE* CLOUDY    49  49 100 SW16G22   29.93S
EMPORIA*       CLOUDY    48  48 100 S9G23     29.97R
$$

VAZ088>098-041200-
SOUTHEAST VIRGINIA

CITY           SKY/WX    TMP DP  RH WIND       PRES   REMARKS
NORFOLK        CLOUDY    49  47  93 SW22G30   29.93S FOG
VIRGINIA BEACH CLOUDY    51  48  89 SW17G26   29.94S FOG
NORFOLK NAVAL  CLOUDY    50  46  86 SW13      29.96R FOG
WEST POINT*    CLOUDY    49  46  92 SW9G16    29.92R
SALUDA*        CLOUDY    47  46  97 SW13G20   29.90R
NEWPORT NEWS   FOG       49  45  86 SW17G23   29.94R VSB 1
LANGLEY AFB    CLOUDY    46  45  97 SW18G25   29.92R FOG
FORT EUSTIS    CLOUDY    46 N/A N/A W9G17     29.91R
WILLIAMSBURG*  CLOUDY    50  48  93 SW14G23   29.94R
HR EXEC AP*    CLOUDY    46  45  93 SW15G22   29.98R
FRANKLIN*      FOG       44  44  99 SW9       29.97R VSB 1
WAKEFIELD      CLOUDY    47  45  93 SW9       29.94R FOG
$$

VAZ020-022-025-037-045-041200-
WEST CENTRAL AND SOUTHWEST VIRGINIA

CITY           SKY/WX    TMP DP  RH WIND       PRES   REMARKS
STAUNTON*      FOG       43  41  95 CALM      29.87S VSB 1/4
WAYNESBORO*    CLOUDY    45  44  98 S5        29.87R
HOT SPRINGS VA RAIN      45  45 100 W10       29.86R VSB 1/4
LYNCHBURG      CLOUDY    43  43 100 S6        29.89R FOG
DANVILLE       FOG       45  43  93 SW6       29.95R VSB 1
SOUTH BOSTON*  CLOUDY    46  44  95 SW7       29.95R
MARTINSVILLE   CLOUDY    43  43 100 SW5       29.96S FOG
ROANOKE        CLOUDY    39  38  96 E5        29.89F FOG
BLACKSBURG     DRIZZLE   45  44  98 CALM      29.92R
DUBLIN*        CLOUDY    42  42 100 CALM      29.91R FOG
MARION*        RAIN      48  47  96 SW8       29.95R VSB 1
HILLSVILLE*    MOCLDY    52  51  95 S6        29.91R
RICHLANDS*     LGT RAIN  53  51  94 SW21G28   29.91S
WISE*          FOG       52  52 100 SW17G28   29.91S VSB 1
ABINGDON*      RAIN      48  48 100 CALM      29.93S VSB 3/4
$$

MDZ021>025-VAZ099-100-041200-
SOUTHERN MARYLAND AND THE DELMARVA PENINSULA

CITY           SKY/WX    TMP DP  RH WIND       PRES   REMARKS
PATUXENT RIVER CLOUDY    41  38  89 NW9       29.91R
BAY BRIDGE APT   N/A     39  37  93 SW5       29.88R
LEONARDTOWN    CLOUDY    41  37  87 CALM      29.93R
DOVER          LGT RAIN  41  41 100 SW12      29.84R
GEORGETOWN     RAIN      41  39  93 SW12      29.87R FOG
EASTON         LGT RAIN  41  41 100 SW13      29.90R
CAMBRIDGE      CLOUDY    43  41  93 S6        29.89S
SALISBURY      CLOUDY    44  41  89 W6        29.92R
OCEAN CITY     CLOUDY    44  44 100 W7        29.92R FOG
WALLOPS ISLAND CLOUDY    48  47  96 W14G23    29.91R
ACCOMACK*      CLOUDY    45  43  93 SW17G26   29.90R FOG
$$

NCZ012>017-030>032-041200-
NORTH CENTRAL AND EASTERN NORTH CAROLINA

CITY           SKY/WX    TMP DP  RH WIND       PRES   REMARKS
ROANOKE RAPIDS CLOUDY    46  46 100 SW18G24   29.98S FOG
RALEIGH        FOG       42  40  92 SW8       30.01R VSB 1/8
ELIZABETH CITY FOG       51  50  96 SW14      29.99S VSB 3/4
AHOSKIE*       FOG       44  43  98 CALM      30.00R VSB 1
EDENTON*       FOG       48  48  99 SW7       30.01S VSB 1/2
CURRITUCK*     FOG       51  50  95 SW13G21   29.99S VSB 1
KILL DEVIL HLS CLOUDY    59  59 100 SW10G16   29.98R FOG
MANTEO         CLOUDY    55  55 100 SW16      29.99S
CAPE HATTERAS  FOG       55  55 100 SW9       30.04R VSB 1/4
TARBORO*       FOG       47  46  97 SW5       30.02R VSB 1
GOLDSBORO      NOT AVBL
WASHINGTON     FOG       48  48  99 SW7       30.03R VSB 1/2
GREENVILLE     FOG       46  46 100 SW10G18   30.03F VSB 1
NEW BERN       CLOUDY    63  61  93 SW14G23   30.04R
WILMINGTON     CLOUDY    60  60 100 SW10      30.08R FOG
$$

VAZ048-041200-
ELSEWHERE

CITY           SKY/WX    TMP DP  RH WIND       PRES   REMARKS
HARRISBURG PA  CLOUDY    33  31  92 S3        29.83R FOG
BALTIMORE      CLOUDY    38  36  92 SW7       29.84R FOG
ANNAPOLIS      CLOUDY    39  36  89 SW5       29.86R
ANDREWS AFB    CLOUDY    39  38  98 SW9       29.86R
PHILADELPHIA   DRIZZLE   34  33  96 W8        29.85R FOG
HENDERSON NC   FOG       43  42  95 SW14      29.97R VSB 3/4
GREENSBORO     FOG       44  44 100 SW13      29.97R VSB 1/4
ROCKY MOUNT    FOG       45  45 100 SW13      30.01R VSB 1/2
$$

VAZ100-041200-
MARINE

STATION/POSITION TIME  TEMP    WIND        PRES    WAVE   SWELL
                       AIR SEA DIR/SP/G            HT/PER HT/PER
                 (UTC) (F)     (DEG/KT/KT) (MB)    (FT/S) (FT/S)
BRANDYWINE LGT   1100   39 31  220/ 18/ 19 1010.5F
CAPE MAY NJ      1100   39 34  200/ 10/ 15 1010.3F
LEWES DE         1100   42 30  240/ 11/ 15 1010.6F
15NM E FENWICK I 1100   37 35              1012.0R   5/ 7
OCEAN-CITY-INLET 1100   44 33  290/  4/  8 1012.0R
WACHAPREAGUE VA  1100   45 36  250/  9/ 16 1012.5R
THOMAS POINT MD  1100   36 32  210/  6/  7 1012.5R
COVE POINT MD    1100   39     310/  4/  6 1012.5R
SOLOMONS ISLAND  1100      33                N/A
BISHOPS HEAD MD  1100   39 32  320/  5/  5 1012.6R
CAMBRIDGE MD     1100   42 32  210/  8/ 10 1011.6S
LEWISETTA VA     1100           CALM  /  2 1012.8R
RAPPAHANNOCK LGT 1100          190/ 14/ 15 1013.2R
STINGRAY PT      1100   41     240/  8/ 10   N/A
YORK RVR RNG VA  1100   44     250/ 17/ 21 1012.2R
YORKTOWN VA      1100   46 34  230/ 13/ 19 1012.6R
DOMINION TERM VA 1100   43     230/ 15/ 17 1013.7R
KIPTOPEKE VA     1100      38  230/ 10/ 12   N/A
CHES BAY BRIDGE  1100   46 34  210/ 16/ 20 1013.4R
CAPE HENRY VA    1100   50     220/ 13/ 23 1012.6S
CHESAPEAKE LGHT  1000   45     220/ 26/ 28 1013.6F
WILLOUBY STN VA  1100          230/ 21/ 22 1014.0R
S CRANEY ISL VA  1100          220/ 13/ 20 1013.9R
CAPE HENRY BUOY  1000      35                N/A     4/ 6
1ST LANDING BUOY 1100   44     230/ 14/ 21 1013.6S
OFFSHORE WE BUOY 1100      36                N/A     5/ 7   3/ 7
64NM E OF VA BCH 1100   56 56  230/ 14/ 17 1014.3R   6/ 8   3/ 8
DUCK PIER NC     1100   48 35  230/  9/ 12 1014.5S
44100 DUCK FRF   1000      37                N/A     6/ 7
44056 DUCK FRF   1100      35                N/A     4/ 7
OREGON INLET NC  1100   49 43  200/ 16/ 19 1015.7F
HATTERAS NC      1100   55 44  230/  8/ 13 1017.3S
CAPE LOOKOUT NC  1000   58     200/ 11/ 13 1017.2F
$$


USA.gov is the U.S. government's official web portal to all federal, state and local government web resources and services.